Weather in Shologoncy

Russia / Sakha (Yakutia) Republic     66°14′55″N   114°17′20″E
temp.,
°C
wind,
m/s
gust,
m/s
humid.,
%
clouds,
%
prec.,
mm/h
press.,
hPa
HPBL,
m
19 september, sun
sun1900:000nnw3579100 0.0 1018356
03:000nw2389100 0.0 1018215
06:00−1nw1295100 0.2 1018146
09:000nne237981 0.3 1018480
12:00+1n346389 0.0 1016889
15:00+3nnw335356 0.0 10161121
18:00+3nne23465 0.0 10151069
21:00−1e2264100 0.0 101614
20 september, mon
mon2000:00−2ese2275100 0.0 101516
03:00−3se118147 0.0 101510
06:00−3se228599 0.0 101512
09:00−1sse2373100 0.0 1014176
12:00+2s4555100 0.0 1012520
15:00+5s4550100 0.0 1011757
18:00+4sse366097 0.0 1011358
21:00+3sse2265100 0.0 101134
21 september, tue
tue2100:00+2se2266100 0.0 101055
03:00+2sse2368100 0.0 101088
06:00+2se2367100 0.0 101093
09:00+3se2863100 0.0 1010339
12:00+4se5854100 0.0 1009461
15:00+4ese51057100 0.1 1008524
18:00+5ese71350100 0.0 1007634
21:00+4se71556100 0.0 1007506
22 september, wed
wed2200:00+3se61265100 0.0 1007330
03:00+3se3568100 0.0 1007165
06:00+3s2479100 0.3 1008164
09:00+4sw3886100 0.9 1010348
12:00+6w6759100 0.0 1012877
15:00+7wsw4550100 0.0 10131172
18:00+7wsw3452100 0.0 101591
21:00+3w226691 0.0 101710
23 september, thu
thu2300:00+3n0169100 0.0 101810
03:00+3n1168100 0.0 101810
06:00+2nne1168100 0.0 101810
09:00+3nne1169100 0.1 101812
12:00+4n1163100 0.0 1017222
15:00+5nw2458100 0.0 1016621
18:00+5wnw4669100 0.0 1017599
21:00+2w511715 0.0 1019290